Change the Weather History Date:

Sunday, September 1, 2013

  Actual Average Record
Temperature  
Mean Temperature 70 °F -  
Max Temperature 84 °F 77 °F 91 °F (1960)
Min Temperature 57 °F 59 °F 43 °F (1949)
Cooling Degree Days 4    
Growing Degree Days 20 (Base 50)    
Moisture  
Dew Point 63 °F    
Average Humidity 92    
Maximum Humidity 100    
Minimum Humidity 63    
Precipitation  
Precipitation 0.41 in - - ()
Sea Level Pressure  
Sea Level Pressure 29.78 in    
Wind  
Wind Speed 3 mph (SW)    
Max Wind Speed 12 mph    
Max Gust Speed -    
Visibility 6 miles    
Events Fog , Rain , Thunderstorm    
Averages and records for this station are not official NWS values.
T = Trace of Precipitation, MM = Missing Value Source: NWS Daily Summary

Daily Weather History Graph

Daily Weather History Graph

Search for Another Location

Airport or City:

Trip Planner

Search our weather history database for the weather conditions in past years. The results will help you decide how hot, cold, wet, or windy it might be!

Date:

Astronomy

Sep. 01, 2013 Rise Set
Actual Time 6:15 AM CDT 7:26 PM CDT
Civil Twilight 5:45 AM CDT 7:56 PM CDT
Nautical Twilight 5:10 AM CDT 8:31 PM CDT
Astronomical Twilight 4:32 AM CDT 9:08 PM CDT
Moon 2:32 AM CDT (9/1) 5:07 PM CDT (9/1)
Length of Visible Light 14h 10m
Length of Day
13h 11m
Waning Crescent, 13% of the Moon is Illuminated
Sep 1
Waning Crescent
Sep 5
New
Sep 12
First Quarter
Sep 19
Full
Sep 26
Last Quarter

Hourly Weather History & Observations

Time (CDT) Temp. Heat Index Dew Point Humidity Pressure Visibility Wind Dir Wind Speed Gust Speed Precip Events Conditions
12:53 AM 59.0 °F - 57.9 °F 96% 29.82 in 8.0 mi Calm Calm - N/A   Clear
1:27 AM 57.2 °F - 57.2 °F 100% 29.82 in 1.5 mi Calm Calm - N/A   Clear
1:29 AM 57.2 °F - 57.2 °F 100% 29.82 in 0.8 mi Calm Calm - N/A   Mist
1:39 AM 57.2 °F - 57.2 °F 100% 29.82 in 1.0 mi Calm Calm - N/A   Clear
1:42 AM 57.2 °F - 57.2 °F 100% 29.82 in 4.0 mi NW 3.5 mph - N/A   Clear
1:50 AM 59.0 °F - 57.2 °F 94% 29.83 in 7.0 mi WNW 4.6 mph - N/A   Partly Cloudy
1:53 AM 57.9 °F - 57.9 °F 100% 29.83 in 6.0 mi Calm Calm - N/A   Partly Cloudy
2:40 AM 60.8 °F - 60.8 °F 100% 29.80 in 2.0 mi SE 4.6 mph - N/A   Mostly Cloudy
2:50 AM 60.8 °F - 60.8 °F 100% 29.80 in 1.5 mi Calm Calm - N/A   Mostly Cloudy
2:53 AM 59.0 °F - 59.0 °F 100% 29.80 in 1.5 mi SW 3.5 mph - N/A   Mostly Cloudy
3:00 AM 57.2 °F - 57.2 °F 100% 29.81 in 3.0 mi West 4.6 mph - N/A   Mostly Cloudy
3:03 AM 57.2 °F - 57.2 °F 100% 29.80 in 1.8 mi West 4.6 mph - N/A   Overcast
3:06 AM 57.2 °F - 57.2 °F 100% 29.81 in 0.8 mi West 4.6 mph - N/A   Mist
3:17 AM 59.0 °F - 59.0 °F 100% 29.80 in 0.2 mi Calm Calm - N/A Fog Fog
3:53 AM 59.0 °F - 59.0 °F 100% 29.78 in 0.2 mi West 4.6 mph - N/A Fog Fog
4:53 AM 59.0 °F - 59.0 °F 100% 29.78 in 0.2 mi Calm Calm - N/A Fog Fog
5:46 AM 60.8 °F - 60.8 °F 100% 29.78 in 0.5 mi WSW 3.5 mph - 0.01 in Fog Fog
5:53 AM 60.1 °F - 60.1 °F 100% 29.78 in 0.5 mi Calm Calm - 0.01 in Fog Fog
6:00 AM 59.0 °F - 59.0 °F 100% 29.78 in 0.2 mi Calm Calm - N/A Fog Fog
6:12 AM 60.8 °F - 60.8 °F 100% 29.78 in 0.2 mi Calm Calm - N/A Fog Fog
6:46 AM 59.0 °F - 59.0 °F 100% 29.79 in 0.2 mi Calm Calm - N/A Fog Fog
6:53 AM 60.1 °F - 60.1 °F 100% 29.78 in 0.2 mi SSW 3.5 mph - N/A Fog Fog
7:05 AM 60.8 °F - 60.8 °F 100% 29.78 in 1.2 mi SSW 3.5 mph - N/A   Mostly Cloudy
7:11 AM 60.8 °F - 60.8 °F 100% 29.78 in 2.5 mi Calm Calm - N/A   Scattered Clouds
7:16 AM 62.6 °F - 62.6 °F 100% 29.78 in 4.0 mi Calm Calm - N/A   Mostly Cloudy
7:33 AM 62.6 °F - 62.6 °F 100% 29.79 in 9.0 mi West 3.5 mph - N/A   Scattered Clouds
7:53 AM 64.0 °F - 64.0 °F 100% 29.79 in 10.0 mi Calm Calm - N/A   Clear
8:53 AM 66.9 °F - 66.0 °F 97% 29.79 in 10.0 mi West 3.5 mph - N/A   Scattered Clouds
9:53 AM 72.0 °F - 66.9 °F 84% 29.79 in 10.0 mi SW 6.9 mph - N/A   Partly Cloudy
10:53 AM 77.0 °F - 68.0 °F 74% 29.76 in 10.0 mi SSW 8.1 mph - N/A   Clear
11:53 AM 80.1 °F 82.9 °F 69.1 °F 69% 29.75 in 10.0 mi SW 9.2 mph - N/A   Scattered Clouds
12:03 PM 78.8 °F - 69.8 °F 74% 29.75 in 10.0 mi SW 8.1 mph - N/A   Mostly Cloudy
12:39 PM 80.6 °F 83.9 °F 69.8 °F 70% 29.74 in 10.0 mi West 8.1 mph - N/A   Mostly Cloudy
12:53 PM 81.0 °F 84.4 °F 70.0 °F 69% 29.73 in 10.0 mi West 9.2 mph - N/A   Scattered Clouds
1:53 PM 82.9 °F 86.5 °F 69.1 °F 63% 29.72 in 10.0 mi SW 10.4 mph - N/A   Scattered Clouds
2:53 PM 81.0 °F 84.1 °F 69.1 °F 67% 29.70 in 10.0 mi Variable 3.5 mph - N/A   Overcast
3:31 PM 75.2 °F - 71.6 °F 89% 29.71 in 10.0 mi East 9.2 mph - 0.00 in Thunderstorm Overcast
3:53 PM 73.9 °F - 70.0 °F 87% 29.71 in 1.5 mi SSE 8.1 mph - 0.19 in Rain , Thunderstorm Heavy Thunderstorms and Rain
3:59 PM 73.4 °F - 69.8 °F 88% 29.72 in 0.8 mi South 11.5 mph - 0.15 in Rain , Thunderstorm Heavy Thunderstorms and Rain
4:10 PM 73.4 °F - 69.8 °F 88% 29.72 in 3.0 mi Calm Calm - 0.21 in Rain , Thunderstorm Light Thunderstorms and Rain
4:23 PM 71.6 °F - 69.8 °F 94% 29.72 in 10.0 mi SE 6.9 mph - 0.21 in Thunderstorm Overcast
4:40 PM 71.6 °F - 69.8 °F 94% 29.73 in 10.0 mi SSE 5.8 mph - 0.21 in   Mostly Cloudy
4:53 PM 72.0 °F - 69.1 °F 91% 29.73 in 10.0 mi SE 3.5 mph - 0.21 in   Overcast
5:07 PM 71.6 °F - 69.8 °F 94% 29.74 in 10.0 mi SSE 4.6 mph - N/A   Overcast
5:53 PM 72.0 °F - 70.0 °F 93% 29.74 in 10.0 mi South 4.6 mph - N/A   Scattered Clouds
6:53 PM 73.0 °F - 71.1 °F 93% 29.75 in 10.0 mi NW 3.5 mph - N/A   Scattered Clouds
7:53 PM 69.1 °F - 69.1 °F 100% 29.76 in 10.0 mi Calm Calm - N/A   Clear
8:53 PM 69.1 °F - 63.0 °F 81% 29.79 in 10.0 mi NNW 4.6 mph - N/A   Partly Cloudy
9:53 PM 66.9 °F - 61.0 °F 81% 29.80 in 10.0 mi NNW 5.8 mph - N/A   Clear
10:53 PM 64.9 °F - 61.0 °F 87% 29.82 in 10.0 mi Calm Calm - N/A   Clear
11:53 PM 63.0 °F - 60.1 °F 90% 29.82 in 10.0 mi NW 3.5 mph - N/A   Clear